TimePST,TemperatureF,Dew PointF,Humidity,Sea Level PressureIn,VisibilityMPH,Wind Direction,Wind SpeedMPH,Gust SpeedMPH,PrecipitationIn,Events,Conditions,WindDirDegrees,DateUTC
12:15 AM,39.2,24.8,56,30.01,10.0,ESE,5.8,-,N/A,,Clear,120,2013-12-21 08:15:00
12:35 AM,39.2,24.8,56,30.00,10.0,ESE,4.6,-,N/A,,Clear,110,2013-12-21 08:35:00
12:55 AM,39.2,24.8,56,30.00,10.0,ESE,4.6,-,N/A,,Clear,110,2013-12-21 08:55:00
1:15 AM,39.2,24.8,56,29.99,10.0,ESE,4.6,-,N/A,,Clear,110,2013-12-21 09:15:00
1:35 AM,39.2,26.6,61,30.00,10.0,East,5.8,-,N/A,,Clear,100,2013-12-21 09:35:00
1:55 AM,37.4,24.8,60,29.99,10.0,East,4.6,-,N/A,,Clear,100,2013-12-21 09:55:00
2:15 AM,37.4,21.2,52,29.99,10.0,Calm,Calm,-,N/A,,Clear,0,2013-12-21 10:15:00
2:35 AM,37.4,24.8,60,30.00,10.0,East,3.5,-,N/A,,Clear,100,2013-12-21 10:35:00
2:55 AM,35.6,23.0,60,30.00,10.0,ESE,3.5,-,N/A,,Clear,110,2013-12-21 10:55:00
3:15 AM,35.6,24.8,65,30.00,10.0,ESE,4.6,-,N/A,,Clear,110,2013-12-21 11:15:00
3:35 AM,33.8,23.0,65,30.00,10.0,East,4.6,-,N/A,,Clear,100,2013-12-21 11:35:00
3:55 AM,33.8,26.6,75,29.99,10.0,East,3.5,-,N/A,,Clear,100,2013-12-21 11:55:00
4:15 AM,35.6,26.6,70,29.99,6.0,East,4.6,-,N/A,,Clear,100,2013-12-21 12:15:00
4:35 AM,35.6,26.6,70,29.99,8.0,East,3.5,-,N/A,,Clear,100,2013-12-21 12:35:00
4:55 AM,35.6,26.6,70,29.99,7.0,East,3.5,-,N/A,,Clear,100,2013-12-21 12:55:00
5:15 AM,33.8,26.6,75,29.98,8.0,East,4.6,-,N/A,,Clear,100,2013-12-21 13:15:00
5:35 AM,33.8,24.8,70,29.99,10.0,East,3.5,-,N/A,,Clear,100,2013-12-21 13:35:00
5:55 AM,33.8,24.8,70,30.00,10.0,East,3.5,-,N/A,,Clear,90,2013-12-21 13:55:00
6:15 AM,33.8,24.8,70,30.00,10.0,Calm,Calm,-,N/A,,Clear,0,2013-12-21 14:15:00
6:35 AM,32.0,24.8,75,30.01,10.0,Calm,Calm,-,N/A,,Clear,0,2013-12-21 14:35:00
6:55 AM,33.8,26.6,75,30.01,10.0,Calm,Calm,-,N/A,,Clear,0,2013-12-21 14:55:00
7:15 AM,33.8,26.6,75,30.01,8.0,Calm,Calm,-,N/A,,Clear,0,2013-12-21 15:15:00
7:35 AM,32.0,24.8,75,30.01,9.0,WSW,3.5,-,N/A,,Clear,240,2013-12-21 15:35:00
7:55 AM,33.8,24.8,70,30.02,9.0,Calm,Calm,-,N/A,,Clear,0,2013-12-21 15:55:00
8:15 AM,35.6,26.6,70,30.03,9.0,Calm,Calm,-,N/A,,Clear,0,2013-12-21 16:15:00
8:35 AM,37.4,28.4,70,30.03,9.0,Calm,Calm,-,N/A,,Clear,0,2013-12-21 16:35:00
8:55 AM,39.2,30.2,70,30.04,10.0,Calm,Calm,-,N/A,,Clear,0,2013-12-21 16:55:00
9:15 AM,42.8,32.0,66,30.05,10.0,Calm,Calm,-,N/A,,Clear,0,2013-12-21 17:15:00
9:35 AM,44.6,33.8,66,30.05,10.0,Calm,Calm,-,N/A,,Clear,0,2013-12-21 17:35:00
9:55 AM,46.4,33.8,62,30.05,10.0,Calm,Calm,-,N/A,,Clear,0,2013-12-21 17:55:00
10:15 AM,48.2,33.8,58,30.05,10.0,Calm,Calm,-,N/A,,Clear,0,2013-12-21 18:15:00
10:35 AM,48.2,35.6,62,30.05,10.0,Calm,Calm,-,N/A,,Clear,0,2013-12-21 18:35:00
10:55 AM,50.0,33.8,54,30.04,10.0,Calm,Calm,-,N/A,,Clear,0,2013-12-21 18:55:00
11:15 AM,51.8,33.8,50,30.03,10.0,WSW,4.6,-,N/A,,Clear,240,2013-12-21 19:15:00
11:35 AM,53.6,33.8,47,30.02,10.0,West,4.6,-,N/A,,Clear,280,2013-12-21 19:35:00
11:55 AM,53.6,30.2,41,30.01,10.0,Calm,Calm,-,N/A,,Clear,0,2013-12-21 19:55:00
12:15 PM,53.6,30.2,41,30.01,10.0,Calm,Calm,-,N/A,,Clear,0,2013-12-21 20:15:00
12:35 PM,55.4,30.2,38,30.01,10.0,Calm,Calm,-,N/A,,Clear,0,2013-12-21 20:35:00
12:55 PM,55.4,30.2,38,30.01,10.0,Calm,Calm,-,N/A,,Clear,0,2013-12-21 20:55:00
1:15 PM,55.4,30.2,38,30.01,7.0,Calm,Calm,-,N/A,,Clear,0,2013-12-21 21:15:00
1:35 PM,55.4,32.0,41,30.00,10.0,Calm,Calm,-,N/A,,Clear,0,2013-12-21 21:35:00
1:55 PM,55.4,30.2,38,30.00,10.0,West,3.5,-,N/A,,Clear,260,2013-12-21 21:55:00
2:15 PM,55.4,33.8,44,30.00,10.0,WNW,4.6,-,N/A,,Clear,290,2013-12-21 22:15:00
2:35 PM,57.2,33.8,41,30.00,10.0,Calm,Calm,-,N/A,,Clear,0,2013-12-21 22:35:00
2:55 PM,57.2,33.8,41,30.00,10.0,West,3.5,-,N/A,,Clear,260,2013-12-21 22:55:00
3:15 PM,57.2,33.8,41,30.00,10.0,Calm,Calm,-,N/A,,Clear,0,2013-12-21 23:15:00
3:35 PM,57.2,33.8,41,30.01,10.0,West,4.6,-,N/A,,Clear,280,2013-12-21 23:35:00
3:55 PM,55.4,32.0,41,30.01,10.0,Calm,Calm,-,N/A,,Clear,0,2013-12-21 23:55:00
4:15 PM,55.4,32.0,41,30.01,10.0,Calm,Calm,-,N/A,,Clear,0,2013-12-22 00:15:00
4:35 PM,55.4,30.2,38,30.01,10.0,Calm,Calm,-,N/A,,Clear,0,2013-12-22 00:35:00
4:55 PM,53.6,30.2,41,30.02,10.0,Calm,Calm,-,N/A,,Clear,0,2013-12-22 00:55:00
5:15 PM,51.8,28.4,41,30.02,10.0,Calm,Calm,-,N/A,,Clear,0,2013-12-22 01:15:00
5:35 PM,50.0,30.2,47,30.02,10.0,Calm,Calm,-,N/A,,Clear,0,2013-12-22 01:35:00
5:55 PM,48.2,28.4,46,30.03,10.0,Calm,Calm,-,N/A,,Clear,0,2013-12-22 01:55:00
6:15 PM,46.4,28.4,50,30.03,10.0,Calm,Calm,-,N/A,,Clear,0,2013-12-22 02:15:00
6:35 PM,46.4,30.2,53,30.04,10.0,Calm,Calm,-,N/A,,Clear,0,2013-12-22 02:35:00
6:55 PM,44.6,28.4,53,30.05,10.0,Calm,Calm,-,N/A,,Clear,0,2013-12-22 02:55:00
7:15 PM,44.6,28.4,53,30.06,10.0,Calm,Calm,-,N/A,,Clear,0,2013-12-22 03:15:00
7:35 PM,42.8,26.6,53,30.06,10.0,Calm,Calm,-,N/A,,Clear,0,2013-12-22 03:35:00
7:55 PM,42.8,28.4,57,30.06,10.0,Calm,Calm,-,N/A,,Clear,0,2013-12-22 03:55:00
8:15 PM,42.8,26.6,53,30.06,10.0,ENE,4.6,-,N/A,,Clear,60,2013-12-22 04:15:00
8:35 PM,41.0,28.4,61,30.07,9.0,East,4.6,-,N/A,,Clear,80,2013-12-22 04:35:00
8:55 PM,42.8,30.2,61,30.08,10.0,East,4.6,-,N/A,,Clear,80,2013-12-22 04:55:00
9:15 PM,42.8,28.4,57,30.08,10.0,East,3.5,-,N/A,,Clear,80,2013-12-22 05:15:00
9:35 PM,42.8,28.4,57,30.08,9.0,Calm,Calm,-,N/A,,Clear,0,2013-12-22 05:35:00
9:55 PM,42.8,30.2,61,30.09,8.0,Calm,Calm,-,N/A,,Clear,0,2013-12-22 05:55:00
10:15 PM,41.0,26.6,57,30.09,9.0,Calm,Calm,-,N/A,,Clear,0,2013-12-22 06:15:00
10:35 PM,39.2,28.4,65,30.10,7.0,Calm,Calm,-,N/A,,Clear,0,2013-12-22 06:35:00
10:55 PM,39.2,28.4,65,30.10,7.0,Calm,Calm,-,N/A,,Clear,0,2013-12-22 06:55:00
11:15 PM,39.2,26.6,61,30.11,7.0,Calm,Calm,-,N/A,,Clear,0,2013-12-22 07:15:00
11:35 PM,37.4,28.4,70,30.11,7.0,Calm,Calm,-,N/A,,Clear,0,2013-12-22 07:35:00
11:55 PM,37.4,26.6,65,30.10,5.0,Calm,Calm,-,N/A,,Clear,0,2013-12-22 07:55:00